{"data":{"norad_id":64516,"epoch":"2026-05-24T23:36:19.858752Z","epoch_age_seconds":76734,"freshness":"FRESH","line1":"1 64516U 25134S   26144.98356318  .00000275  00000+0  65111-4 0  9998","line2":"2 64516  51.9002 245.7594 0000310 105.7956 254.3041 14.79933647 51518","mean_motion":14.79933647,"eccentricity":3.1e-5,"inclination_deg":51.9002,"raan_deg":245.7594,"arg_perigee_deg":105.7956,"mean_anomaly_deg":254.3041,"bstar":6.5111e-5,"rev_number":5151,"period_min":97.301659633123,"perigee_km":629.31634896887,"apogee_km":629.75082454525,"semimajor_km":7007.6705867571,"source":"CELESTRAK","updated_at":"2026-05-25T13:38:04.575572Z"}}